Durant, OK

5:42 PM CST on December 15, 2019 (GMT -0600)
Eaker

Weather History for KDUA - October, 2019

Change the Weather History Date:

Sunday, October 27, 2019

  Actual Average (WUND) Record (WUND)
Temperature  
Mean Temperature 60 °F -  
Max Temperature 75 °F - - (-1)
Min Temperature 46 °F - - (-1)
Degree Days  
Heating Degree Days 4    
Growing Degree Days 10 (Base 50)    
Moisture  
Dew Point 44 °F    
Average Humidity 66    
Maximum Humidity 94    
Minimum Humidity 24    
Precipitation  
Precipitation 0.00 in - - ()
Sea Level Pressure  
Sea Level Pressure 29.93 in    
Wind  
Wind Speed 5 mph (SSE)    
Max Wind Speed 17 mph    
Max Gust Speed 24 mph    
Visibility 10 miles    
Events      
Averages and records for this station are not official NWS values.
T = Trace of Precipitation, MM = Missing Value Source: NWS Daily Summary

Daily Weather History Graph

Daily Weather History Graph

Search for Another Location

Airport or City:

Astronomy

Oct. 27, 2019 Rise Set
Actual Time 7:40 AM CDT 6:37 PM CDT
Civil Twilight 7:14 AM CDT 7:03 PM CDT
Nautical Twilight 6:45 AM CDT 7:32 PM CDT
Astronomical Twilight 6:16 AM CDT 8:01 PM CDT
Moon 6:55 AM CDT (10/27) 6:44 PM CDT (10/27)
Length of Visible Light 11h 48m
Length of Day
10h 57m
Waning Crescent, 0% of the Moon is Illuminated
Oct 27
Waning Crescent
Oct 27
New
Nov 4
First Quarter
Nov 12
Full
Nov 19
Last Quarter

Hourly Weather History & Observations

Time (CDT) Temp. Windchill Dew Point Humidity Pressure Visibility Wind Dir Wind Speed Gust Speed Precip Events Conditions
12:19 AM 48.2 °F - 46.4 °F 93% 29.86 in 10.0 mi Calm Calm - N/A   Clear
12:38 AM 48.2 °F - 44.6 °F 87% 29.87 in 10.0 mi Calm Calm - N/A   Clear
12:57 AM 48.2 °F - 44.6 °F 87% 29.87 in 10.0 mi Calm Calm - N/A   Clear
1:36 AM 48.2 °F - 44.6 °F 87% 29.87 in 10.0 mi South 3.5 mph - N/A   Clear
1:58 AM 48.2 °F - 44.6 °F 87% 29.87 in 10.0 mi Calm Calm - N/A   Clear
2:16 AM 48.2 °F - 44.6 °F 87% 29.87 in 10.0 mi SSE 4.6 mph - N/A   Clear
2:36 AM 46.4 °F - 44.6 °F 93% 29.87 in 10.0 mi Calm Calm - N/A   Clear
2:59 AM 46.4 °F - 42.8 °F 87% 29.87 in 10.0 mi Calm Calm - N/A   Clear
3:18 AM 46.4 °F - 44.6 °F 93% 29.87 in 10.0 mi Calm Calm - N/A   Clear
3:38 AM 46.4 °F 44.3 °F 42.8 °F 87% 29.87 in 10.0 mi SSE 4.6 mph - N/A   Clear
4:16 AM 46.4 °F 45.2 °F 44.6 °F 93% 29.88 in 10.0 mi SSE 3.5 mph - N/A   Clear
4:59 AM 46.4 °F 44.3 °F 44.6 °F 93% 29.88 in 10.0 mi SSE 4.6 mph - N/A   Clear
5:17 AM 46.4 °F 44.3 °F 44.6 °F 93% 29.89 in 10.0 mi SSE 4.6 mph - N/A   Clear
5:58 AM 46.4 °F 44.3 °F 44.6 °F 93% 29.90 in 10.0 mi SE 4.6 mph - N/A   Clear
6:18 AM 48.2 °F - 46.4 °F 93% 29.90 in 10.0 mi SE 4.6 mph - N/A   Clear
6:37 AM 46.4 °F 45.2 °F 44.6 °F 93% 29.91 in 10.0 mi SE 3.5 mph - N/A   Clear
6:57 AM 46.4 °F 44.3 °F 44.6 °F 93% 29.91 in 10.0 mi SE 4.6 mph - N/A   Clear
7:17 AM 48.2 °F - 46.4 °F 93% 29.92 in 10.0 mi ESE 5.8 mph - N/A   Clear
7:38 AM 48.2 °F - 46.4 °F 93% 29.92 in 10.0 mi SE 5.8 mph - N/A   Clear
7:57 AM 48.2 °F - 46.4 °F 93% 29.93 in 10.0 mi SE 8.1 mph - N/A   Clear
8:18 AM 50.0 °F - 48.2 °F 94% 29.93 in 10.0 mi SE 6.9 mph - N/A   Clear
8:37 AM 51.8 °F - 48.2 °F 88% 29.93 in 10.0 mi SE 6.9 mph - N/A   Clear
8:58 AM 51.8 °F - 50.0 °F 94% 29.94 in 10.0 mi SSE 9.2 mph - N/A   Clear
9:18 AM 53.6 °F - 51.8 °F 94% 29.95 in 10.0 mi SSE 9.2 mph - N/A   Clear
9:38 AM 55.4 °F - 51.8 °F 88% 29.95 in 10.0 mi SSE 12.7 mph - N/A   Clear
9:58 AM 57.2 °F - 51.8 °F 82% 29.96 in 10.0 mi SSE 10.4 mph - N/A   Clear
10:18 AM 59.0 °F - 51.8 °F 77% 29.97 in 10.0 mi SSE 8.1 mph - N/A   Clear
10:57 AM 64.4 °F - 46.4 °F 52% 29.97 in 10.0 mi South 12.7 mph - N/A   Clear
11:17 AM 66.2 °F - 42.8 °F 43% 29.97 in 10.0 mi South 16.1 mph - N/A   Clear
11:58 AM 69.8 °F - 42.8 °F 38% 29.97 in 10.0 mi South 12.7 mph 18.4 mph N/A   Clear
12:18 PM 69.8 °F - 39.2 °F 33% 29.97 in 10.0 mi South 13.8 mph - N/A   Clear
12:38 PM 71.6 °F - 39.2 °F 31% 29.96 in 10.0 mi South 12.7 mph - N/A   Clear
12:57 PM 71.6 °F - 37.4 °F 29% 29.95 in 10.0 mi South 16.1 mph 19.6 mph N/A   Clear
1:37 PM 73.4 °F - 37.4 °F 27% 29.93 in 10.0 mi South 15.0 mph - N/A   Clear
1:58 PM 75.2 °F - 37.4 °F 25% 29.92 in 10.0 mi South 15.0 mph 20.7 mph N/A   Clear
2:17 PM 75.2 °F - 39.2 °F 27% 29.92 in 10.0 mi South 17.3 mph - N/A   Clear
2:37 PM 75.2 °F - 37.4 °F 25% 29.92 in 10.0 mi South 13.8 mph 20.7 mph N/A   Clear
2:59 PM 75.2 °F - 37.4 °F 25% 29.92 in 10.0 mi South 15.0 mph 20.7 mph N/A   Clear
3:57 PM 75.2 °F - 35.6 °F 24% 29.92 in 10.0 mi South 16.1 mph - N/A   Clear
4:17 PM 75.2 °F - 35.6 °F 24% 29.92 in 10.0 mi South 17.3 mph 24.2 mph N/A   Clear
4:38 PM 75.2 °F - 37.4 °F 25% 29.92 in 10.0 mi SSW 15.0 mph - N/A   Clear
4:58 PM 75.2 °F - 39.2 °F 27% 29.92 in 10.0 mi South 15.0 mph - N/A   Clear
5:17 PM 75.2 °F - 39.2 °F 27% 29.92 in 10.0 mi South 12.7 mph - N/A   Clear
5:38 PM 75.2 °F - 41.0 °F 29% 29.92 in 10.0 mi South 9.2 mph - N/A   Clear
5:58 PM 73.4 °F - 41.0 °F 31% 29.92 in 10.0 mi South 9.2 mph - N/A   Clear
6:17 PM 71.6 °F - 42.8 °F 35% 29.92 in 10.0 mi SSE 4.6 mph - N/A   Clear
6:38 PM 68.0 °F - 44.6 °F 43% 29.93 in 10.0 mi SSE 5.8 mph - N/A   Clear
7:17 PM 62.6 °F - 44.6 °F 52% 29.94 in 10.0 mi South 4.6 mph - N/A   Unknown
7:58 PM 59.0 °F - 46.4 °F 63% 29.96 in 10.0 mi Calm Calm - N/A   Clear
8:37 PM 57.2 °F - 46.4 °F 67% 29.96 in 10.0 mi SSE 3.5 mph - N/A   Clear
8:57 PM 55.4 °F - 46.4 °F 72% 29.97 in 10.0 mi SSE 3.5 mph - N/A   Clear
9:17 PM 55.4 °F - 46.4 °F 72% 29.97 in 10.0 mi SSE 3.5 mph - N/A   Clear
9:39 PM 55.4 °F - 46.4 °F 72% 29.98 in 10.0 mi Calm Calm - N/A   Clear
9:57 PM 55.4 °F - 46.4 °F 72% 29.98 in 10.0 mi Calm Calm - N/A   Clear
10:18 PM 55.4 °F - 46.4 °F 72% 29.98 in 10.0 mi Calm Calm - N/A   Clear
10:38 PM 53.6 °F - 46.4 °F 77% 29.98 in 10.0 mi Calm Calm - N/A   Clear
11:17 PM 53.6 °F - 46.4 °F 77% 29.99 in 10.0 mi Calm Calm - N/A   Clear
11:37 PM 53.6 °F - 46.4 °F 77% 29.99 in 10.0 mi Calm Calm - N/A   Clear
11:59 PM 53.6 °F - 46.4 °F 77% 30.00 in 10.0 mi Calm Calm - N/A   Clear